User: anonymous   Login
Location: Unspecified
(0.0000°N, 0.0000°E)
Time: 01:54:36
(UTC+00:00)
Language:

GOES 1 - Orbit

View from above orbital plane
View from above orbital plane
View from above satellite
View from above satellite

Ground track
Ground track

The orbit data is extracted from the following two-line orbital elements,

1  8366U 75100A   18352.44768517  .00000043  00000-0  00000+0 0  9993
2  8366  11.0815 311.8428 0006385 318.6135 211.4206  1.00293229157756
Epoch (UTC): 18 December 2018 10:44:39
Eccentricity: 0.0006385
inclination: 11.0815°
perigee height: 35753 km
apogee height: 35807 km
right ascension of ascending node: 311.8428°
argument of perigee: 318.6135°
revolutions per day: 1.00293229
mean anomaly at epoch: 211.4206°
orbit number at epoch: 15775

The dashed part of the orbit path shows where the satellite is in the earth's shadow,  

DLR